Voltar ao catálogo

SL-8 R/B

AtivoLEO
NORAD 6826·ROCKET BODY·🇷🇺 Russia

Lançado Sep 8, 1973 de Plesetsk Cosmodrome

Loading…

Próximas Passagens (próximas 24 horas)

TLE

AtualizadoSource: Space-Track

Época: Sep 14, 2026, 15:16 UTC

1 06826U 73064B   26257.63643336 -.00000020  00000-0 -14269-4 0  9998
2 06826  74.0213 319.3655 0029698 294.3060 233.0142 12.69799868457704

Acompanhe SL-8 R/B em tempo real com AllMySat

Download on the App Store